Погода в Осьно-Любуске

Польша     52°27′13″N   14°52′25″E
темп.,
°C
ветер,
м/с
пор.,
м/с
влажн.,
%
обл.,
%
осадки,
мм/ч
давл.,
гПа
погр.,
м
1 марта, пн
пн101:00+4з1388100 0.0 1036198
04:00+4з1288100 0.0 103548
07:00+4з2391100 0.0 1036137
10:00+6зюз348299 0.0 1036474
13:00+9зюз236873 0.0 1036604
16:00+10зюз23660 0.0 1035511
19:00+6зюз22820 0.0 103522
22:00+4зюз22870 0.0 103522
2 марта, вт
вт201:00+4з12890 0.0 103522
04:00+3з12900 0.0 103422
07:00+2з22910 0.0 103522
10:00+7зсз23750 0.0 1034264
13:00+11сз22560 0.0 1034486
16:00+11сз12560 0.0 1033458
19:00+6ссз11720 0.0 103322
22:00+5всв12790 0.0 103322
3 марта, ср
ср301:00+4вюв12830 0.0 103322
04:00+3юв12860 0.0 103222
07:00+2ююв22880 0.0 103122
10:00+8ю23710 0.0 1030269
13:00+12ююз34540 0.0 1028567
16:00+12юз35590 0.0 1025667
19:00+7юз34770 0.0 102365
22:00+5зюз36840 0.0 1022121
4 марта, чт
чт401:00+5зюз34896 0.0 102091
04:00+4зюз369422 0.0 1018130
07:00+4з379748 0.0 1017202
10:00+7з478252 0.0 1016479
13:00+9з466976 0.0 1015742
16:00+8зсз4668100 0.0 1013880
19:00+5сз2380100 0.0 101270
22:00+4св2484100 0.0 1012141
5 марта, пт
пт501:00+4ссв2483100 0.0 1012410
04:00+2с5893100 0.0 1013445
07:000ссв61085100 0.3 1015731
10:00+2ссв795978 0.0 10181423
13:00+4ссв684888 0.1 10201866
16:00+4с684554 0.1 10211947
19:000с4106545 0.3 1024540
22:00−2ссз24710 0.0 1027135